Location: T. Spence Memorial Observatory
(32.7356°N, 82.2098°W)
Time: 08:03:14
(UTC-04:00)

Cosmos 2219 - Visible Passes

Search period start: 28 March 2017 00:00
Search period end: 07 April 2017 00:00
Orbit: 834 x 860 km, 71.1° (Epoch: 26 March)

Date Brightness Start Highest point End Pass type
(mag) Time Alt. Az. Time Alt. Az. Time Alt. Az.
31 Mar 6.1 23:56:58 10° NNW 23:57:08 11° NNW 23:57:08 11° NNW visible
01 Apr 5.5 22:02:02 10° NNE 22:02:15 10° NNE 22:02:15 10° NNE visible
01 Apr 5.9 23:43:30 10° NNW 23:44:11 14° NNW 23:44:11 14° NNW visible
02 Apr 5.4 21:48:43 10° NNE 21:49:20 11° NE 21:49:20 11° NE visible
02 Apr 5.6 23:30:03 10° NNW 23:31:16 17° NNW 23:31:16 17° NNW visible
03 Apr 5.3 21:35:24 10° NNE 21:36:27 11° NE 21:36:27 11° NE visible
03 Apr 5.3 23:16:35 10° NNW 23:18:23 21° NNW 23:18:23 21° NNW visible
04 Apr 5.2 21:22:06 10° NE 21:23:36 11° NE 21:23:36 11° NE visible
04 Apr 5.0 23:03:07 10° NNW 23:05:32 27° NNW 23:05:32 27° NNW visible
05 Apr 5.2 21:08:50 10° NE 21:10:28 11° NE 21:10:47 11° ENE visible
05 Apr 4.6 22:49:40 10° NNW 22:52:44 34° NNW 22:52:44 34° NNW visible
06 Apr 5.2 20:55:35 10° NE 20:57:00 11° NE 20:58:02 10° ENE visible
06 Apr 4.1 22:36:13 10° NNW 22:39:58 44° NNW 22:39:58 44° NNW visible
